1999 LQ28 

Epoch 1999 July 1.0 TT = JDT 2451360.5                  Nakano

M 226.82042              (2000.0)            P               Q

n   0.75089306     Peri.  320.41012     +0.52126328     -0.76911011

a   1.1988108      Node    95.07419     +0.84639599     +0.41053949

e   0.1201929      Incl.   21.79322     +0.10907987     +0.48982341

P   1.31           H   19.1           G   0.15           U   *

Residuals in seconds of arc 

990614 704  0.4+  0.1-    990615 120  1.8-  1.5+    990620 118  0.1+  0.4-  

990614 704  0.5+  1.1-    990615 120  0.3+  0.9+    990623 118  0.5-  0.8+  

990614 704  0.3-  0.2-    990616 426  0.2+  0.4-    990623 118  0.8-  0.1+  

990614 704  0.1-  0.2-    990616 426  0.4+  0.1-    990623 118  0.1-  0.0   

990614 120  0.6+  0.7+    990616 426  0.2+  0.3-    990624 426  0.2+  0.0   

990614 120  0.9+  0.5+    990616 120  2.0-  1.9+    990624 426  0.1+  0.2-  

990614 120  0.4-  0.1+    990616 120  0.2+  1.5+    990624 426  0.3+  0.2-  

990615 118  0.3-  0.4-    990616 120  0.4+  0.2+    990624 118  0.5-  0.1+  

990615 118  0.0   0.7-    990616 620  0.8-  0.9+    990624 118  0.7+  0.5-  

990615 118  0.1+  0.2-    990616 118  0.1+  0.0     990703 426  0.2+  0.4-  

990615 611  0.1+  0.5+    990616 118  0.7+  0.2-    990703 426  0.0   0.3-  

990615 611  1.8+  0.7-    990616 118  0.1-  0.1+    990703 426  0.0   0.2-  

990615 704  0.1-  0.2-    990617 620  1.1+  0.3-    990703 046  0.1-  0.2-  

990615 704  0.2-  0.2-    990617 620  0.3-  0.3-    990703 046  0.4+  0.1-  

990615 704  0.3-  0.1-    990617 422  0.1+  0.3+    990703 046  0.3-  0.1-  

990615 704  0.2-  0.0     990617 422  0.2+  0.3+    990705 360  0.0   0.3+  

990615 704  0.6-  0.2-    990617 422  0.3+  0.1+    990705 360  0.4+  0.6+  

990615 704  0.2-  0.1-    990617 422  0.2+  0.1+    990705 360  0.1+  0.5+  

990615 704  0.3-  0.3-    990620 046  0.1+  0.4-    990707 402  1.7-  1.5+  

990615 704  0.2-  0.1+    990620 046  0.2+  0.6-    990707 402  0.8+  0.1-  

990615 704  0.3-  0.5-    990620 046  0.0   0.0     990707 402  0.3+  1.5-  

990615 704  0.2-  0.2-    990620 046  0.1-  0.3-                            

990615 120  0.4-  0.9-    990620 118  0.4+  0.3-                            

 



–ß‚è‚Ü‚·B